Wind_Speed
34 33 34 35 35 36 37 38 39 40 40 40 39 40 41 41 41 41 41 41 41 40 40 40 41 42 42 42 43 44 44 44 44 44 44 45 45 46 46 47 47 47 47
34 34 33 34 35 35 36 37 38 38 38 37 37 38 39 39 39 40 40 40 40 40 41 41 42 42 43 43 44 44 44 44 45 44 44 44 45 45 46 47 47 47 47
35 34 34 34 35 35 36 36 36 36 37 37 37 37 38 38 39 39 40 40 40 40 41 41 42 43 43 44 44 44 45 45 45 45 44 45 45 46 46 46 47 46 46
35 35 34 35 35 35 35 35 36 36 37 37 37 37 38 39 39 40 41 41 41 41 42 42 43 43 44 44 45 45 45 45 45 45 45 45 45 45 45 45 45 45 45
35 35 35 34 34 35 36 36 36 37 38 38 38 38 38 39 39 40 41 41 42 42 43 43 43 43 43 44 44 45 45 46 46 46 46 45 45 45 45 44 44 43 43
36 35 35 36 36 36 36 36 36 37 38 38 38 39 39 39 40 40 41 41 42 42 42 43 44 43 44 44 44 44 45 45 45 44 45 45 44 44 45 43 42 41 41
37 37 36 36 36 37 37 36 36 37 37 38 39 39 39 39 40 40 41 41 41 41 42 43 43 43 43 43 43 43 43 43 43 42 42 42 42 42 42 40 40 39 39
37 37 36 36 37 38 37 36 37 37 37 38 39 40 39 39 39 40 41 41 41 41 42 42 42 42 42 42 42 42 41 41 41 41 41 40 40 40 39 39 38 38 38
36 36 36 37 37 38 38 37 38 38 38 38 38 38 38 38 38 39 40 41 41 41 41 41 41 41 41 41 40 39 39 40 40 39 39 39 39 39 38 37 37 37 36
35 35 36 37 37 37 37 37 38 38 38 38 38 38 38 37 38 38 40 40 41 41 40 40 41 41 40 40 39 39 39 39 38 38 38 38 37 37 37 37 36 36 36
34 34 35 36 36 36 37 37 37 38 38 38 38 38 38 38 38 38 40 40 40 39 38 38 38 38 39 39 39 39 39 38 37 37 37 37 37 37 37 37 36 36 36
33 33 34 35 35 36 37 37 37 37 37 37 38 39 39 38 38 38 39 39 39 38 37 37 38 38 37 36 36 36 36 36 36 36 35 35 35 35 35 35 35 35 34
33 33 34 34 34 34 35 35 36 36 37 37 38 38 38 38 38 38 38 38 38 38 37 37 37 36 36 35 35 35 35 36 35 34 34 34 34 34 33 33 33 32 32
31 32 32 32 32 33 33 34 35 35 35 36 37 37 37 37 37 37 37 37 37 36 36 36 36 36 35 35 35 35 34 34 34 33 33 33 33 32 32 32 31 30 30
30 30 31 31 32 32 32 32 32 33 33 33 34 34 35 35 36 36 36 35 35 35 35 35 35 35 35 34 34 34 33 33 33 33 32 32 32 32 31 31 30 30 30
30 29 29 29 30 30 31 31 31 31 30 31 31 32 32 32 33 33 34 34 34 34 34 34 34 33 33 33 33 33 33 33 32 32 31 31 31 31 31 30 30 30 30
28 28 28 28 28 28 29 29 29 30 30 30 30 30 31 31 31 31 32 33 33 33 33 34 33 33 33 33 33 33 32 32 31 31 31 31 31 30 30 30 29 29 29
27 27 27 28 27 28 28 28 28 28 29 29 29 29 29 30 30 30 31 32 32 32 32 32 32 32 32 32 31 30 30 30 30 30 30 30 30 29 29 29 29 28 28
27 27 27 27 28 28 29 29 28 28 28 28 28 28 29 29 29 29 29 30 30 30 30 31 31 31 31 31 30 30 29 29 29 29 29 29 29 29 29 28 28 28 27
26 27 27 27 27 27 28 28 28 28 28 28 27 28 28 29 28 28 28 29 29 29 29 30 30 30 29 29 29 29 29 29 29 28 28 28 29 29 29 28 28 27 26
26 27 27 27 27 27 26 26 27 27 27 27 27 28 28 29 29 28 28 28 28 28 28 28 28 28 28 27 27 27 27 28 28 28 28 28 28 28 28 27 27 26 25
25 25 25 26 25 25 25 25 25 26 26 26 26 27 28 27 27 27 27 26 26 26 25 25 25 25 26 25 25 26 26 26 27 27 27 27 27 26 26 26 26 25 24
24 25 24 24 25 25 25 25 25 25 26 26 26 26 26 25 25 25 25 25 25 25 25 25 24 24 24 24 25 25 26 26 26 26 26 25 25 25 24 24 24 23 23
24 23 23 24 24 24 25 25 25 25 25 25 25 24 24 23 23 23 24 24 23 24 24 24 24 24 24 25 25 24 25 25 25 24 24 23 24 24 23 23 23 22 22
22 23 23 24 24 24 24 24 24 24 24 23 23 23 23 23 23 23 23 23 22 23 23 23 23 23 24 24 24 23 23 23 23 23 23 23 22 23 22 21 21 21 21
21 22 22 23 23 23 23 23 23 23 22 22 22 22 22 23 22 22 22 22 22 22 22 23 23 23 23 23 22 22 22 21 22 21 21 21 21 21 20 20 20 20 20
Wind_Direction
249 250 250 251 254 254 254 255 255 255 255 254 254 255 255 255 256 258 259 259 260 261 263 264 266 268 270 273 275 277 278 279 280 281 282 282 282 282 283 284 284 284 284
249 250 251 254 254 255 255 256 256 255 255 254 255 255 255 256 256 257 258 260 261 262 264 266 267 269 271 273 275 277 277 278 280 281 282 282 282 282 283 284 284 285 285
248 251 253 253 255 256 256 255 255 254 254 256 257 257 256 256 256 257 258 259 261 263 264 266 268 269 271 273 275 276 277 278 280 281 282 282 282 282 284 284 285 285 285
249 251 253 254 255 256 255 254 255 255 255 256 256 256 256 256 256 257 259 260 261 263 265 266 268 270 272 273 275 276 277 278 279 281 281 282 282 283 284 285 284 284 284
251 252 253 255 255 255 255 255 256 256 255 256 256 256 256 257 258 259 259 260 262 264 266 268 269 270 272 274 275 275 276 278 279 280 282 282 282 283 284 284 284 283 283
253 255 255 255 255 255 256 256 256 256 255 257 258 257 257 258 259 260 261 262 264 266 268 269 270 271 273 274 276 277 278 279 281 281 282 282 283 283 284 284 283 283 284
255 255 255 255 254 256 257 256 256 256 257 257 257 258 259 258 259 261 261 262 265 267 269 270 271 272 273 274 276 277 278 279 280 281 282 282 283 283 284 284 283 284 284
256 256 256 256 255 256 255 256 256 256 256 257 258 259 259 259 260 260 261 262 265 267 269 271 272 273 274 275 276 276 277 279 280 281 283 282 282 283 283 283 283 283 284
257 258 257 257 256 257 256 257 257 257 257 257 257 257 259 260 261 261 262 262 264 267 269 271 272 273 275 275 275 276 277 279 280 282 283 282 282 283 283 283 283 283 284
258 259 259 258 258 258 257 258 259 258 257 258 258 258 258 259 260 262 263 264 265 267 269 270 271 272 273 274 273 274 276 278 280 281 282 282 281 282 282 283 282 283 284
258 258 259 259 258 259 259 259 259 259 259 258 258 259 259 259 261 263 264 265 267 268 269 269 270 272 272 272 273 273 275 275 278 279 280 281 281 281 281 282 281 283 284
258 259 259 260 260 260 260 260 261 260 260 260 260 260 260 262 263 264 264 266 267 269 269 269 270 271 273 273 273 274 274 275 278 278 279 280 280 281 282 282 282 283 284
259 260 260 260 260 261 262 261 262 262 261 261 261 261 261 262 264 265 265 266 268 269 269 269 270 271 272 273 274 275 275 276 278 279 279 280 281 281 281 282 281 282 283
259 259 260 260 260 262 263 263 263 264 265 263 262 262 262 262 263 265 266 266 267 269 269 269 270 270 271 272 273 274 274 276 277 278 278 280 280 279 280 282 281 280 281
259 260 260 261 261 262 263 263 264 265 266 264 264 263 263 263 264 264 265 265 266 267 268 268 269 269 269 271 272 273 274 275 276 276 277 279 280 280 280 281 279 279 280
260 261 261 261 261 262 262 262 263 264 265 265 265 264 265 265 264 264 264 264 265 266 268 268 269 269 269 270 271 271 272 274 274 274 276 278 280 280 279 279 278 278 279
261 261 261 261 262 262 263 263 263 264 265 266 265 265 266 266 265 264 263 263 265 266 267 268 269 270 270 270 270 270 271 272 273 274 276 278 279 279 279 278 278 279 280
260 260 262 263 262 262 262 262 263 264 265 266 266 266 265 266 265 265 264 264 265 266 267 268 270 270 270 270 270 270 270 270 273 274 275 277 277 277 278 278 278 278 280
261 261 263 264 263 262 263 262 262 263 264 265 265 265 264 265 265 265 265 265 266 266 267 269 270 270 270 269 268 269 270 271 273 275 276 276 276 276 277 277 278 278 278
263 264 265 264 264 264 263 262 262 262 263 264 265 265 265 265 266 266 266 265 266 267 269 270 269 269 268 267 267 268 269 270 273 275 276 276 276 276 277 277 277 277 277
263 264 265 264 263 264 264 264 263 263 263 265 266 268 268 267 266 265 265 265 266 268 269 269 268 267 266 266 266 267 269 271 273 275 274 274 275 276 277 277 277 276 275
264 263 263 263 262 263 265 264 264 264 265 266 267 269 269 268 266 265 265 265 266 268 269 268 267 266 265 265 266 268 269 271 272 273 274 274 275 276 276 277 276 274 272
266 265 264 263 263 264 265 265 264 264 265 268 269 269 267 267 266 265 265 266 265 266 268 267 267 265 265 266 268 269 270 271 271 273 275 275 275 275 275 276 274 272 271
268 266 265 265 265 266 266 265 265 265 265 266 267 267 266 266 265 265 265 266 267 267 266 266 267 266 267 267 269 269 270 270 271 273 274 274 274 273 273 273 272 270 270
268 267 266 267 267 266 266 266 266 267 266 265 266 266 266 266 265 264 265 266 268 269 268 267 268 268 267 267 268 268 269 270 270 271 272 272 271 271 272 272 271 269 269
269 268 267 266 266 265 265 265 264 264 265 266 267 267 267 265 264 263 265 266 268 269 268 268 268 268 267 266 265 266 267 268 268 269 270 269 269 270 271 271 270 269 269
Height
5621 5623 5626 5628 5630 5632 5634 5636 5638 5640 5642 5644 5646 5648 5651 5653 5654 5657 5659 5661 5663 5664 5666 5668 5669 5670 5671 5671 5671 5671 5670 5670 5669 5669 5667 5666 5664 5662 5660 5658 5656 5653 5651
5613 5615 5617 5619 5621 5623 5624 5626 5628 5630 5632 5635 5637 5639 5641 5643 5645 5647 5649 5651 5653 5655 5656 5658 5659 5659 5660 5660 5659 5659 5659 5658 5657 5657 5655 5654 5652 5650 5648 5645 5643 5641 5639
5604 5606 5608 5610 5612 5614 5615 5617 5619 5621 5623 5625 5627 5629 5631 5633 5636 5638 5639 5641 5643 5644 5646 5647 5647 5648 5648 5648 5648 5647 5646 5646 5645 5644 5643 5641 5639 5637 5635 5633 5631 5628 5626
5596 5598 5599 5601 5603 5605 5606 5608 5610 5612 5614 5616 5618 5620 5622 5624 5626 5627 5629 5631 5632 5634 5635 5636 5636 5636 5636 5636 5636 5635 5634 5634 5633 5631 5630 5628 5627 5624 5622 5621 5618 5616 5614
5587 5589 5591 5593 5594 5595 5597 5598 5600 5602 5604 5606 5608 5610 5612 5613 5615 5617 5619 5620 5622 5623 5624 5624 5625 5625 5625 5624 5624 5623 5622 5621 5620 5618 5617 5615 5614 5612 5610 5608 5606 5604 5602
5578 5580 5582 5583 5585 5586 5587 5589 5590 5592 5594 5596 5598 5600 5601 5603 5605 5606 5608 5610 5611 5612 5613 5613 5613 5613 5613 5612 5611 5610 5609 5608 5607 5605 5604 5603 5601 5599 5597 5595 5594 5593 5592
5568 5570 5572 5573 5575 5576 5577 5579 5581 5582 5584 5585 5587 5589 5591 5593 5594 5596 5597 5599 5600 5601 5601 5601 5601 5601 5600 5599 5599 5598 5597 5595 5594 5593 5592 5590 5589 5587 5586 5584 5583 5581 5581
5558 5560 5562 5563 5565 5566 5567 5569 5571 5572 5574 5575 5577 5578 5580 5582 5583 5585 5586 5588 5589 5590 5590 5589 5589 5589 5588 5587 5587 5586 5585 5584 5583 5582 5581 5579 5578 5576 5574 5573 5572 5571 5570
5548 5550 5552 5553 5554 5556 5557 5559 5560 5562 5563 5565 5566 5567 5569 5571 5572 5574 5575 5576 5577 5578 5578 5578 5578 5577 5576 5575 5575 5575 5574 5573 5571 5570 5569 5568 5566 5565 5564 5563 5562 5561 5560
5539 5540 5541 5542 5544 5546 5547 5548 5550 5551 5552 5554 5555 5557 5558 5560 5561 5562 5563 5565 5566 5567 5567 5566 5566 5566 5565 5564 5564 5563 5563 5562 5560 5560 5559 5558 5556 5555 5554 5553 5552 5551 5550
5529 5530 5531 5533 5534 5535 5536 5537 5538 5540 5541 5543 5545 5546 5547 5549 5550 5551 5552 5553 5554 5555 5555 5555 5555 5554 5554 5553 5553 5552 5552 5551 5550 5549 5549 5548 5547 5546 5545 5544 5543 5542 5541
5519 5520 5522 5523 5524 5525 5526 5527 5528 5529 5530 5532 5533 5535 5536 5538 5539 5540 5540 5541 5542 5543 5544 5544 5544 5544 5543 5543 5542 5542 5541 5540 5540 5540 5539 5538 5537 5536 5535 5534 5533 5532 5531
5510 5511 5512 5513 5514 5515 5516 5516 5517 5518 5520 5521 5523 5524 5526 5527 5528 5529 5530 5530 5531 5532 5533 5534 5534 5533 5533 5532 5532 5531 5531 5531 5531 5530 5530 5529 5528 5527 5526 5525 5524 5524 5523
5501 5502 5503 5504 5505 5505 5506 5506 5507 5508 5509 5511 5512 5514 5515 5516 5517 5518 5519 5520 5520 5521 5522 5523 5523 5523 5523 5522 5522 5522 5521 5521 5521 5521 5520 5519 5519 5518 5518 5517 5516 5516 5515
5491 5493 5494 5495 5495 5496 5496 5497 5498 5499 5499 5501 5502 5503 5504 5506 5507 5507 5508 5509 5510 5511 5512 5512 5513 5513 5513 5513 5513 5513 5512 5512 5512 5512 5511 5510 5510 5510 5509 5508 5508 5508 5507
5483 5484 5485 5486 5486 5487 5488 5488 5489 5490 5490 5491 5492 5493 5494 5495 5496 5497 5498 5499 5500 5500 5501 5502 5503 5503 5503 5503 5503 5503 5503 5503 5503 5502 5502 5502 5501 5501 5500 5500 5499 5499 5499
5474 5475 5476 5477 5478 5478 5479 5480 5481 5482 5482 5482 5483 5484 5485 5485 5486 5487 5488 5489 5490 5490 5491 5492 5493 5493 5493 5494 5494 5494 5494 5494 5494 5493 5493 5493 5493 5492 5492 5491 5491 5491 5490
5466 5467 5468 5468 5469 5470 5471 5472 5472 5473 5474 5474 5475 5475 5476 5476 5477 5478 5478 5479 5480 5481 5482 5482 5483 5483 5484 5484 5484 5485 5485 5485 5485 5485 5485 5484 5484 5484 5483 5483 5483 5482 5482
5457 5458 5459 5460 5461 5461 5462 5463 5464 5464 5465 5466 5466 5467 5467 5467 5468 5468 5469 5470 5471 5472 5473 5473 5473 5474 5474 5475 5475 5476 5476 5476 5476 5476 5476 5476 5476 5475 5475 5475 5474 5474 5474
5449 5450 5451 5451 5452 5453 5453 5454 5455 5456 5456 5457 5458 5458 5458 5459 5459 5460 5460 5461 5462 5463 5464 5464 5464 5464 5465 5466 5466 5467 5467 5467 5467 5467 5467 5467 5467 5467 5467 5466 5466 5466 5466
5440 5441 5442 5443 5444 5444 5445 5445 5446 5447 5448 5449 5449 5449 5449 5450 5450 5451 5452 5453 5454 5454 5455 5455 5455 5456 5456 5457 5457 5458 5458 5458 5459 5459 5459 5459 5459 5459 5458 5458 5458 5458 5458
5432 5433 5434 5435 5435 5436 5437 5437 5438 5439 5439 5440 5440 5440 5440 5441 5442 5442 5443 5444 5445 5445 5446 5446 5446 5447 5447 5448 5449 5449 5450 5450 5450 5450 5450 5450 5450 5450 5450 5450 5450 5450 5450
5425 5425 5426 5427 5428 5428 5429 5429 5430 5430 5431 5431 5431 5432 5432 5433 5433 5434 5435 5436 5436 5437 5437 5438 5438 5439 5439 5440 5441 5441 5442 5442 5442 5442 5442 5442 5442 5442 5442 5442 5442 5442 5443
5417 5417 5418 5419 5420 5420 5421 5422 5422 5422 5423 5423 5423 5424 5424 5425 5425 5426 5427 5427 5428 5429 5429 5430 5430 5431 5431 5432 5432 5433 5433 5433 5433 5434 5434 5434 5434 5435 5435 5435 5435 5435 5436
5410 5410 5411 5412 5412 5413 5413 5414 5414 5415 5415 5415 5416 5416 5416 5417 5418 5418 5419 5420 5421 5421 5422 5422 5422 5423 5423 5424 5424 5425 5425 5425 5425 5426 5426 5427 5427 5427 5428 5428 5428 5428 5429
5403 5403 5404 5404 5405 5405 5405 5406 5406 5407 5407 5408 5408 5409 5409 5410 5410 5411 5412 5412 5413 5414 5414 5415 5415 5415 5416 5416 5417 5417 5417 5418 5419 5419 5419 5420 5420 5421 5421 5421 5421 5422 5422